星链-11603 (STARLINK-11603)

导读 | 豆包AI

STARLINK-11603是美国太空探索技术公司 SpaceX星链互联网卫星项目中的一颗卫星,于2025年4月28日发射升空。星链计划旨在构建全球卫星互联网星座,为全球各地用户提供高速低延迟的宽带互联网服务,该卫星入轨后将助力星链网络进一步覆盖,提升服务容量与稳定性。

基本信息
目录编号:
63671
目录名称:
STARLINK-11603
国际标识:
2025-085H
轨道中心:
EARTH
卫星名称:
星链-11603
卫星全名:
星链-11603 (STARLINK-11603)
卫星状态:
在轨 (已飞行367 天)
发射日期:
2025-04-28 UTC
国别 :
美国 (US)
星等 :
--
轨道信息
数据来源 国际轨道数据
星历时间: 2026-04-30T06:56:31+0800
5小时前
查看轨道信息
半长轴: 6734.612km
偏心率: 0.0002192
轨道倾角: 42.997°
近地点辐角 300.223°
升交点赤经 329.493°
平近点角 59.843°
近地点: 354.998km
远地点: 357.952km
周期: 91.670分钟
每日圈数: 15.708472
详细信息
固有亮度:
5
最大亮度:
2.5
卫星平台:
Starlink V1.0
覆盖范围:
全球
运营商:
太空探索技术公司
运营商所在国:
美国
制造商(研发单位):
太空探索技术公司
制造商所在国:
美国
使用方式:
暂无
卫星简介
Starlink 计划是 SpaceX 推出的全球卫星互联网项目,通过发射低轨道卫星,为全球尤其是偏远地区提供高速、低延迟的互联网服务。自 2019 年起,Starlink 已部署数千颗卫星,旨在缩小全球数字鸿沟,推动互联网普及。该项目还为军事、航空等行业提供通信支持,带来广泛经济效益。
2D轨道图
3D轨道图
轨道高度分析图
轨道倾角分析图
轨道综合分析图
查看轨道综合分析图